STARLINK-34401, 64757

Orbit data source: Space-Track

STARLINK-34401, 64757 is a payload satellite owned by SpaceX/Seattle (US) in LEO that was launched on Tue, 08 Jul 2025 UTC via an FALCON 9 launch vehicle from the Air Force Eastern Test Range (AFETR). Payload-class satellites include a variety of spacecraft equipped with specific instruments for various scientific and technological missions. These include communications satellites like Starlink; space stations such as the ISS; scientific satellites like the Hubble; Earth observation satellites from companies like Planet Labs, Umbra, and HawkEye 360; GPS; miniature CubeSats for education and research; and military/defense satellites.

Loading next visibility...
Identifier
64757, 2025-147C
Orbit
LEO
Country
Flag of USUS
Related business
Manufacturer
SpaceX/Seattle
Mission
Operational Commercial Communications
Bus & Motor
STARLINK V2MO, Unknown motor
Mass
575 kg wet, ~530 kg dry
Launch date (UTC)
2025-07-08 (1 year ago)
Launch vehicle
FALCON 9
Launch site
Air Force Eastern Test Range (AFETR)
Object type
Payload
Rocket body
Debris
Shape & HBR
Box + 1 Pan, 17.7 m
Radar Cross Section
41.120 m², Large (>1 m²)

Expand to show TLE details & history
Last TLE update: 17 hours ago

TLE from 17 hours ago
0 STARLINK-34401
1 64757U 25147C   26221.40767721  .00014742  00000-0  44649-3 0  9993
2 64757  53.1583 250.5562 0001218  80.0563 280.0577 15.34406599 62109
Epoch: 2026-08-09T09:47Z
TLE epoch observation values (Epoch: 2026-08-09T09:47:03.310Z)
Latitude
-0.00005°
Longitude
145.88727°
Altitude
463.439 km
Speed
7.636 km/s
True Right ascension
16h 42m 13s
True Declination
0° 00' 00"
Sunlit
Object was in daylight at epoch
Visualization orbit readout
Latitude
Unknown
Longitude
Unknown
Altitude
Unknown
Speed
Unknown
Apparent Right ascension
Unknown
Apparent Declination
Unknown
Sunlit
N/A
Visualization observer readout
Local Sidereal Time
16:40:29
Azimuth
Unknown
Elevation
Unknown
Doppler factor
Unknown
Orbital elements
Apogee altitude
463.774 km
Perigee altitude
462.108 km
Semi-major axis
6,841.078 km
Eccentricity
0.00012
Inclination
53.1583°
RAAN
250.5562°
Arg. of periapsis
80.0563°
True anomaly
280.04396°
Mean anomaly
280.0577°
Eccentric anomaly
280.05083°
Mean motion
3.8358 °/min
Orbital period
93.85 mins
BSTAR
0.00044649
Loading maneuver chart data...
Computing Atmospheric mass density...
Loading historical data...
Loading historical data...
Loading historical data...
Loading historical data...
Loading historical data...
Loading historical data...
Loading historical data...

Documentation

Showing up to 5 results
|